Home   Weather   Ostrava   Past weeks
Flag for Czechia

Past Weather in Ostrava, Czechia — Yesterday and Last 2 Weeks

Now
57 °F

Sunny.


Feels Like: 56 °F
Forecast: 67 / 38 °F
Wind: 5 mph from West

Location: Ostrava / Mosnov

Current Time: Apr 7, 2020 at 8:26:40 pm

Latest Report: Apr 7, 2020 at 7:00 pm


Visibility: 25 mi

Pressure: 30.46 "Hg

Humidity: 32%

Dew Point: 27 °F

Location of OstravaLocation

Past Weather in Ostrava — Graph

°F

Ostrava Temperature Yesterday

Maximum temperature yesterday: 66 °F (at 4:00 pm)
Minimum temperature yesterday: 29 °F (at 5:00 am)
Average temperature yesterday: 48 °F

High & Low Weather Summary for the Past Weeks

 TemperatureHumidityPressure
High67 °F (Apr 7, 4:00 pm)93% (Apr 1, 7:00 am)30.61 "Hg (Apr 1, 7:00 am)
Low22 °F (Mar 31, 2:00 am)14% (Apr 7, 4:00 pm)29.82 "Hg (Apr 3, 3:00 am)
Average40 °F55%30.27 "Hg
* Reported Mar 23 6:00 pm — Apr 7 7:00 pm, Ostrava. Weather by CustomWeather, © 2020

Note: Actual official high and low records may vary slightly from our data, if they occured in-between our weather recording intervals... More about our weather records

Ostrava Weather History for the Previous 24 Hours

Scroll right to see more
 ConditionsComfort  
Time TempWeatherWind HumidityBarometerVisibility
7:00 pm
Tue, Apr 7
57 °FSunny.5 mph32%30.46 "Hg25 mi
6:00 pm64 °FSunny.6 mph19%30.45 "Hg25 mi
5:00 pm66 °FSunny.6 mph14%30.45 "Hg25 mi
4:00 pm67 °FSunny.7 mph14%30.45 "Hg25 mi
3:00 pm67 °FSunny.7 mph15%30.47 "Hg25 mi
2:00 pm66 °FSunny.8 mph16%30.48 "Hg25 mi
1:00 pm64 °FSunny.8 mph15%30.49 "Hg25 mi
12:00 pm63 °FSunny.9 mph17%30.51 "Hg25 mi
11:00 am61 °FSunny.10 mph19%30.51 "Hg25 mi
10:00 am58 °FSunny.9 mph27%30.51 "Hg22 mi
9:00 am55 °FSunny.7 mph33%30.51 "Hg19 mi
8:00 am45 °FSunny.2 mph61%30.53 "Hg16 mi
7:00 am39 °FSunny.N/A61%30.52 "Hg16 mi
6:00 am38 °FClear.2 mph63%30.51 "Hg16 mi
5:00 am40 °FClear.N/A56%30.50 "Hg16 mi
4:00 am49 °FClear.5 mph39%30.47 "Hg16 mi
3:00 am41 °FClear.5 mph57%30.49 "Hg16 mi
2:00 am41 °FClear.2 mph56%30.49 "Hg16 mi
1:00 am49 °FClear.3 mph40%30.48 "Hg16 mi
12:00 am52 °FClear.2 mph33%30.47 "Hg16 mi
11:00 pm
Mon, Apr 6
42 °FClear.2 mph53%30.47 "Hg16 mi
10:00 pm54 °FClear.2 mph32%30.44 "Hg19 mi
9:00 pm54 °FClear.2 mph33%30.44 "Hg19 mi
8:00 pm55 °FClear.5 mph33%30.42 "Hg19 mi
Weather by CustomWeather, © 2020

See weather overview

Advertising